Wind_Speed
36 37 36 35 35 35 36 37 38 39 39 40 40 40 41 41 41 42 42 42 42 41 41 41 43 45 48 50 50 50 50 50 49 48 48 47 45 43 42 42 42 42 42 42 41 40 40 40 41 41 40 39 37 36 35 31 27 27 26 23 17 14 18 20 19 19 18 16 14 16 15 13 14 10 7 7 5 6 7 9 10 11 10 12 15 17 20 23
33 36 38 38 37 36 36 37 38 39 40 41 41 42 43 43 43 44 45 45 45 44 44 44 44 46 49 51 51 51 51 51 50 50 49 48 46 44 44 44 45 44 44 43 42 41 41 42 43 43 42 41 39 37 37 34 29 28 28 26 20 15 19 22 23 22 21 18 13 14 14 11 11 8 8 7 5 6 7 10 10 8 8 12 14 16 19 22
31 33 36 38 40 39 38 37 38 39 41 42 43 44 45 45 46 46 47 48 48 47 46 46 46 48 50 52 53 53 52 52 51 52 51 49 48 46 46 46 46 46 45 44 44 44 44 44 45 45 44 43 41 39 38 36 31 30 31 27 23 21 19 21 25 25 23 20 14 12 14 12 10 8 9 7 4 5 7 9 6 4 7 12 14 16 19 21
30 32 34 37 39 41 41 39 39 39 41 42 43 45 46 47 48 48 49 50 50 50 49 49 49 49 51 53 54 54 54 53 52 53 52 51 49 47 47 48 48 47 47 46 46 46 46 46 46 45 45 44 43 40 38 38 36 35 34 28 25 25 22 20 23 26 26 23 17 13 14 13 9 8 8 6 3 5 7 7 3 3 8 12 15 16 18 20
29 31 33 35 37 40 42 43 42 40 41 42 44 46 47 48 49 50 51 52 52 53 53 52 51 52 52 54 55 56 55 53 54 55 53 52 51 50 49 50 49 49 48 48 48 47 47 46 46 46 46 45 44 43 39 39 39 38 37 31 27 27 25 24 24 25 26 25 20 15 14 13 10 9 7 6 5 8 8 7 6 7 8 13 16 17 18 20
30 30 32 33 36 38 41 44 45 44 42 43 44 46 48 49 50 52 53 54 54 55 56 55 54 54 54 55 56 58 57 56 58 57 55 54 53 51 51 51 51 51 50 50 50 49 48 47 47 46 46 46 45 44 42 40 38 35 38 35 30 29 26 26 27 25 24 22 20 18 16 14 12 10 8 8 8 11 11 9 10 12 11 15 18 17 18 20
32 31 32 33 34 37 40 42 45 46 46 45 45 46 48 49 51 53 54 56 56 57 58 58 57 56 56 57 57 59 59 59 60 57 56 56 54 53 52 53 53 52 52 52 51 50 50 48 48 47 47 48 46 46 44 43 38 32 36 38 33 31 27 25 27 27 25 21 19 19 17 15 14 12 11 10 9 10 12 12 13 14 15 17 18 18 19 19
35 34 33 33 34 36 38 41 44 46 48 48 48 48 48 50 51 53 55 57 58 59 60 60 60 59 59 59 59 60 59 61 63 59 58 58 56 55 54 54 54 54 54 53 53 51 51 49 48 48 48 48 47 46 44 42 38 31 35 39 35 32 29 26 27 29 29 27 23 19 17 17 16 15 13 12 10 11 13 15 16 17 17 17 18 20 20 19
37 37 36 35 34 35 37 39 42 45 48 50 51 51 50 50 52 53 55 58 59 61 61 62 63 62 62 61 61 61 61 65 66 61 61 60 59 58 56 55 55 55 55 54 54 53 52 51 50 49 49 49 48 49 47 42 37 32 36 41 37 33 32 29 29 30 31 31 28 22 18 17 18 17 16 15 15 15 15 15 17 17 17 18 19 20 20 20
36 38 38 38 36 36 36 38 41 44 47 50 52 53 53 52 53 54 56 58 60 62 63 64 65 65 64 63 63 62 64 68 66 63 64 63 62 61 59 58 56 55 56 56 55 55 54 53 51 51 50 51 52 52 51 46 40 37 39 41 36 32 33 32 30 30 30 30 29 25 22 20 18 17 17 18 17 15 15 15 17 16 17 19 20 21 21 21
34 36 38 39 39 38 37 38 40 43 46 49 52 54 55 55 55 55 56 58 60 62 64 65 67 67 67 66 65 64 67 69 67 67 67 66 64 63 62 61 59 57 57 57 57 57 56 55 53 53 53 53 54 53 53 50 45 43 44 41 35 32 33 33 30 29 29 27 26 24 22 21 19 17 18 19 17 15 14 15 17 17 18 20 21 22 21 21
33 34 36 38 39 40 40 39 40 42 45 48 51 53 56 57 58 57 57 59 60 63 65 67 68 69 69 69 67 67 70 70 69 69 69 68 67 66 65 63 62 60 58 58 58 58 57 57 56 55 55 54 55 54 54 53 49 47 47 45 40 35 33 33 30 27 28 27 24 24 22 20 19 18 20 20 18 16 16 18 18 18 19 21 22 22 20 21
33 33 35 37 38 40 41 41 41 42 45 48 51 53 56 58 60 60 60 60 61 63 65 67 69 70 71 71 70 71 72 71 70 70 71 71 70 68 67 66 65 63 61 60 59 59 58 58 59 58 57 56 56 56 56 57 54 50 49 49 46 42 36 33 31 29 29 27 25 26 25 23 19 17 20 20 18 18 20 20 20 21 23 24 23 21 21 21
35 34 34 36 37 38 40 42 42 43 44 47 50 53 55 58 60 62 63 63 63 64 65 67 69 71 72 73 74 74 74 72 72 72 73 73 73 72 70 68 67 66 64 62 61 61 60 60 61 60 60 59 58 59 60 58 56 53 51 50 49 47 42 35 33 33 30 25 25 26 25 24 20 17 20 21 19 21 23 22 23 26 27 26 25 23 23 21
37 37 35 35 36 37 38 40 42 43 45 47 50 53 55 58 60 63 65 66 65 65 66 68 69 71 73 74 76 76 76 75 74 74 74 75 75 75 73 72 70 69 67 66 64 62 62 63 63 62 63 62 61 62 60 57 56 55 52 52 51 49 47 42 38 37 35 30 27 28 27 24 21 20 24 23 20 20 21 22 24 26 27 27 25 23 22 19
39 39 37 36 35 37 38 39 41 42 44 47 50 52 55 57 60 62 65 67 68 68 67 68 69 71 73 74 77 79 79 78 76 76 76 76 76 76 76 75 73 72 70 69 67 66 65 65 63 63 64 63 63 62 59 57 57 55 54 54 53 52 50 47 43 40 41 39 34 33 33 30 26 27 28 25 23 20 17 19 22 24 26 24 21 18 17 17
40 40 39 38 36 36 37 38 40 41 43 46 50 52 54 57 59 62 64 67 69 70 70 70 70 72 73 76 79 80 80 80 79 79 78 78 78 78 78 78 76 75 74 72 71 70 68 66 64 64 64 64 64 62 59 58 57 57 57 56 55 55 52 49 48 44 43 45 43 39 38 34 31 31 30 27 27 22 18 17 18 21 22 18 17 15 15 15
43 42 41 40 38 36 36 37 39 39 41 45 49 52 54 56 58 61 63 66 68 71 73 72 72 73 73 76 78 79 79 81 81 81 81 80 79 80 80 79 79 78 76 75 74 73 70 68 67 66 65 65 64 61 60 61 61 60 60 59 58 58 54 51 51 48 45 46 46 43 40 36 31 30 30 30 29 24 20 20 18 19 21 20 18 15 15 15
45 43 43 41 39 37 36 37 38 39 40 43 47 51 54 56 58 60 63 65 68 70 72 74 75 75 74 75 77 79 80 81 83 84 83 82 81 82 82 81 80 80 79 78 77 75 73 71 69 68 67 65 64 63 63 64 64 63 62 61 61 59 56 54 53 51 48 47 47 45 42 39 36 34 34 33 32 28 25 23 21 18 19 19 17 16 17 16
47 44 43 42 41 38 36 36 37 38 39 41 45 49 53 56 57 58 61 64 67 69 72 75 77 77 77 77 78 78 80 83 86 86 85 85 84 84 83 82 82 82 81 81 80 77 76 73 71 70 69 68 67 67 67 67 66 64 63 62 61 59 57 56 55 54 51 49 49 48 45 43 42 41 39 36 34 32 28 25 22 19 17 17 17 18 17 16
49 45 44 43 41 39 36 35 36 37 38 40 44 47 51 54 56 58 60 62 65 68 72 74 76 78 79 78 76 76 80 84 86 86 87 88 87 86 85 85 84 83 83 83 82 80 78 75 73 73 72 71 71 71 70 69 67 64 63 61 60 59 59 57 56 56 54 52 51 50 48 46 44 42 41 38 35 34 31 27 24 22 18 17 18 18 16 17
51 46 44 43 41 39 37 35 35 36 37 39 42 46 49 53 55 57 59 61 63 66 70 73 76 78 80 79 78 80 83 84 85 86 88 89 90 89 88 87 86 85 86 85 83 82 80 78 77 76 75 74 74 74 71 69 67 64 63 62 61 61 61 57 56 58 57 56 54 51 50 49 47 43 41 38 35 35 34 29 27 26 23 21 20 18 17 19
54 48 44 42 41 39 37 35 34 35 36 38 41 45 48 51 53 55 57 59 61 63 67 71 75 78 79 80 82 85 86 84 84 86 88 90 91 91 90 89 88 88 87 86 84 84 83 82 81 80 79 77 77 76 73 71 68 64 64 64 64 64 62 59 60 60 58 57 55 51 50 50 49 47 43 38 35 35 35 32 30 29 26 24 23 20 18 18
56 50 44 41 40 39 36 34 34 34 35 37 40 44 47 49 52 54 56 58 59 61 64 67 71 75 79 81 83 86 87 85 84 85 88 91 92 92 92 91 90 90 89 87 86 85 85 85 84 83 82 80 79 77 75 73 68 65 66 67 67 67 65 63 63 61 58 57 57 54 52 51 50 48 44 41 38 35 33 32 32 30 26 22 22 21 19 18
57 50 45 41 40 38 36 34 34 34 34 36 39 42 46 48 50 53 55 58 60 61 63 65 68 72 75 78 82 86 88 88 87 85 87 90 91 92 93 93 93 92 91 90 89 88 87 87 87 86 84 82 80 80 80 75 69 69 69 69 71 69 67 66 64 62 60 59 59 58 58 56 52 49 46 44 41 36 33 35 35 32 28 23 22 23 21 19
57 50 44 41 39 37 35 33 33 34 34 35 37 40 45 48 50 53 55 58 60 61 62 64 66 69 70 74 81 86 88 89 90 88 88 89 91 92 94 95 95 94 93 92 91 90 89 89 89 87 86 84 83 84 83 75 71 73 73 73 74 72 70 68 65 63 62 61 61 61 61 59 56 53 50 47 45 41 38 39 36 32 30 27 24 25 24 24
56 48 44 41 39 36 34 33 33 33 33 34 36 39 43 46 50 53 56 59 61 60 62 64 66 68 69 73 78 81 85 90 91 89 89 89 90 92 94 96 97 97 96 94 92 91 91 91 90 89 88 87 85 85 82 76 76 78 77 77 76 73 71 67 64 64 63 62 63 62 61 60 58 55 54 51 49 46 43 42 38 34 32 30 30 32 31 30
54 47 43 41 39 35 33 32 32 33 33 34 35 38 41 44 49 53 57 61 61 60 61 64 67 68 70 72 74 78 84 87 86 88 91 91 91 92 95 97 99 99 98 96 94 93 94 93 92 91 89 86 84 84 82 81 82 82 81 79 77 74 72 68 66 66 64 64 63 61 61 60 59 57 57 56 52 50 48 45 39 36 34 31 34 39 39 37
51 45 42 40 38 34 33 32 32 33 33 33 34 37 40 43 48 52 58 61 61 62 63 65 68 69 70 71 74 79 81 80 82 87 91 93 92 92 95 97 98 99 98 97 96 96 96 96 95 93 89 86 86 86 86 85 86 85 82 80 78 76 73 72 70 67 66 66 64 62 62 61 60 60 60 58 57 54 53 50 44 42 42 40 42 45 44 42
49 44 42 40 36 34 33 32 32 32 32 33 35 37 40 44 48 52 57 59 61 65 65 67 70 70 70 72 75 77 76 78 84 87 88 91 92 92 94 95 96 98 99 100 99 99 100 99 96 93 90 88 89 89 88 88 88 87 84 81 79 77 76 75 72 69 70 68 65 65 65 63 62 62 61 60 59 58 56 54 51 50 49 46 45 46 44 43
46 43 41 38 35 33 33 33 32 32 32 33 36 39 42 45 49 52 55 57 61 65 67 70 72 71 71 73 75 75 75 78 82 81 82 87 90 91 93 93 95 98 100 101 101 101 102 100 95 93 92 91 92 91 89 88 90 89 86 83 81 80 79 76 71 70 71 68 67 67 67 66 64 63 62 60 59 58 57 56 54 53 49 45 44 44 42 41
44 42 40 36 34 34 34 33 32 32 32 34 36 39 42 46 48 51 53 55 59 63 66 70 73 73 74 74 74 75 77 78 76 75 79 85 89 91 91 92 95 98 100 102 102 103 103 101 98 96 95 95 95 93 91 90 91 90 87 84 82 80 79 77 72 71 71 68 69 70 68 67 66 64 62 60 60 59 58 56 54 52 48 46 47 46 43 41
43 41 38 34 33 34 34 34 33 32 33 35 36 37 40 43 45 47 49 52 56 59 63 67 72 75 76 76 76 76 77 75 74 75 78 83 87 89 91 93 95 97 100 103 104 104 105 104 101 99 98 98 95 93 91 91 91 90 88 85 82 80 78 77 74 73 73 72 72 73 72 70 68 65 63 62 61 60 58 56 55 53 50 48 51 49 47 45
41 39 36 33 33 34 34 34 33 33 34 35 35 34 35 37 39 41 43 47 52 56 60 65 69 73 76 79 79 78 76 73 74 76 78 82 84 86 89 94 96 97 101 104 103 104 106 106 103 100 100 99 95 94 94 92 91 90 88 86 83 81 80 78 75 75 76 75 75 76 75 72 68 66 65 64 63 61 60 57 56 56 54 52 53 52 49 47
40 38 35 33 33 34 35 34 34 34 35 36 36 34 31 31 34 36 37 40 46 52 57 61 66 70 76 80 81 79 77 75 76 78 80 83 83 84 88 91 93 97 102 104 103 104 107 107 104 103 103 101 98 98 96 93 92 92 91 88 85 83 81 80 79 79 78 76 76 77 75 72 68 67 65 61 60 62 63 59 57 57 56 55 55 53 50 48
37 35 34 33 33 34 35 35 36 36 37 37 37 33 29 26 28 31 32 36 41 45 51 56 62 68 74 79 80 79 79 79 78 79 82 84 84 87 89 90 92 97 101 101 102 105 106 106 106 105 105 103 100 100 98 95 95 95 94 90 87 87 84 82 82 82 80 78 78 79 75 71 68 67 66 60 57 61 62 61 60 58 57 57 56 54 52 50
35 33 32 32 33 34 35 36 37 39 39 39 37 31 25 23 24 26 28 32 36 40 45 50 57 64 71 77 79 80 82 82 79 79 82 84 85 87 87 88 90 93 94 94 97 101 104 106 107 105 104 105 104 104 102 100 99 96 93 91 90 89 88 86 85 84 82 80 80 80 75 72 71 69 68 63 60 61 59 58 61 59 57 57 55 54 52 49
34 32 31 32 33 33 35 37 38 41 42 40 36 29 22 20 20 22 24 28 32 36 40 46 51 57 65 72 76 80 83 83 82 82 84 85 85 85 84 84 84 85 87 89 94 100 105 108 107 103 103 106 106 105 103 101 100 97 95 94 92 92 91 89 86 84 81 80 80 79 74 73 74 72 70 66 62 61 58 56 57 57 57 56 54 53 52 48
32 30 30 32 33 34 35 37 39 42 43 41 36 29 22 19 18 18 20 24 28 32 36 40 45 50 57 64 70 76 81 83 84 85 87 87 86 86 85 83 83 83 84 86 90 97 104 108 106 102 104 106 106 105 103 100 99 97 96 94 92 93 93 90 88 85 82 81 80 78 76 76 76 73 72 70 66 63 59 57 57 56 57 57 55 54 53 50
30 28 29 32 34 34 35 37 39 42 43 42 38 31 25 20 18 17 18 21 25 28 32 36 41 46 51 57 63 71 77 82 85 87 91 91 90 88 87 85 84 84 85 86 87 93 100 104 104 102 104 106 104 104 104 102 102 100 97 95 93 93 94 93 91 88 85 84 82 80 80 80 77 73 71 70 68 65 59 56 55 55 56 57 57 56 54 52
27 25 27 31 34 34 35 36 39 43 44 43 38 31 25 20 17 15 16 18 21 25 29 34 38 43 48 52 58 65 73 80 85 89 92 93 91 90 88 86 86 85 86 87 87 92 99 103 104 102 101 102 103 105 106 104 104 103 100 97 95 96 98 96 93 89 87 86 85 86 87 81 75 73 73 71 69 68 65 61 57 55 54 55 57 57 55 53
25 23 26 31 33 34 35 36 39 42 44 44 38 30 23 19 16 14 14 16 19 23 28 32 35 39 44 49 54 60 67 75 83 88 91 92 91 90 89 87 87 88 89 89 91 96 99 101 102 101 99 101 104 106 105 103 103 103 100 97 97 98 99 95 92 91 90 89 89 91 91 83 75 75 75 73 71 70 70 68 65 60 55 54 55 56 55 53
23 22 25 30 33 34 35 37 40 43 46 45 39 30 23 19 15 13 13 15 17 21 26 29 32 37 41 46 52 56 61 68 75 81 86 89 90 90 89 88 88 89 90 92 93 93 92 93 97 99 97 100 103 103 102 102 102 102 101 99 99 100 99 97 96 96 95 95 96 96 94 86 80 78 76 74 74 73 72 71 67 64 60 58 57 56 54 52
21 21 24 29 31 33 35 37 40 44 47 46 40 31 24 20 16 12 11 13 16 19 24 28 31 35 39 43 48 53 57 61 67 72 79 85 89 89 89 89 88 88 89 90 89 86 85 88 94 96 94 96 100 99 99 101 101 102 103 103 103 103 102 100 100 99 98 98 99 99 94 87 83 82 80 78 77 76 74 72 68 65 63 62 59 57 55 53
18 20 24 28 30 32 34 37 40 43 46 45 40 33 25 20 16 12 10 12 14 17 21 25 29 32 35 40 44 49 53 57 61 65 71 78 84 87 88 89 89 89 88 88 87 86 86 89 92 93 91 93 98 101 101 102 102 104 105 106 107 107 104 101 98 96 95 97 99 98 92 86 83 83 83 82 80 78 76 74 70 67 66 64 62 59 57 55
17 20 25 28 29 31 32 35 37 41 45 44 39 33 27 21 17 13 10 10 13 16 19 22 26 29 31 35 39 43 48 52 55 60 65 70 77 82 86 89 90 90 89 89 88 87 88 89 89 90 89 90 96 102 103 103 103 103 104 106 107 107 107 104 99 95 93 94 98 97 93 90 88 85 83 83 81 79 78 77 73 70 68 66 64 61 59 56
17 21 24 26 28 30 32 34 37 40 44 44 39 33 28 22 17 12 9 9 11 14 17 19 23 26 28 30 33 37 42 47 51 56 60 64 69 74 81 86 89 91 90 89 88 87 87 88 87 87 88 89 94 98 99 99 101 102 104 107 108 108 107 103 99 99 97 95 96 95 91 91 92 90 87 86 84 81 80 78 75 72 70 68 66 63 61 59
17 21 22 24 28 30 31 33 36 39 43 43 39 33 28 24 19 13 9 7 9 12 15 18 22 25 27 29 32 35 38 42 46 51 55 58 62 67 73 80 86 90 90 89 89 87 87 88 87 87 89 90 93 96 97 97 99 101 105 108 108 107 106 103 101 102 100 99 98 94 90 92 94 93 92 91 89 85 82 79 76 74 72 71 69 66 64 62
16 20 22 24 27 29 31 33 35 39 43 43 40 34 29 25 20 16 10 6 7 9 13 17 20 23 25 27 29 32 35 37 40 45 50 54 57 61 66 71 78 84 88 90 89 89 89 90 87 87 88 88 89 92 95 97 99 101 102 102 101 102 103 104 106 106 102 100 99 96 93 94 93 92 93 94 92 88 85 82 79 77 76 74 71 69 68 65
16 20 23 25 27 29 31 33 35 38 42 44 41 34 30 26 22 18 14 7 4 7 11 14 18 21 24 26 29 32 33 35 38 43 47 50 54 58 61 65 71 78 84 88 90 91 91 89 87 87 87 86 87 89 91 95 98 99 99 98 97 99 102 104 107 107 103 101 100 97 96 96 94 92 93 94 93 91 89 87 84 82 80 77 75 73 71 69
16 21 23 24 26 28 31 33 35 38 42 44 42 36 30 26 23 19 15 11 5 4 8 11 15 19 23 26 30 31 31 34 39 42 45 47 51 55 59 63 68 73 78 84 88 91 91 89 88 89 88 88 89 89 91 94 96 98 98 96 96 99 102 105 108 108 105 104 103 100 99 98 96 94 93 95 95 94 93 91 89 86 83 81 79 77 75 72
17 21 23 24 25 28 31 33 35 38 41 43 42 38 31 26 23 19 16 13 8 3 5 8 12 16 21 24 27 28 29 33 36 38 41 44 48 52 57 62 66 69 73 78 83 88 89 88 90 91 90 90 90 90 92 93 94 96 97 95 96 100 103 105 108 108 107 106 106 104 101 99 98 97 96 98 99 98 97 95 92 89 87 84 82 80 78 76
Wind_Direction
273 271 268 265 261 259 257 253 249 244 241 238 234 229 225 223 222 221 219 219 219 218 216 214 213 213 213 212 211 211 211 211 211 210 210 211 211 209 208 208 207 205 204 203 202 200 198 197 197 197 196 195 196 197 194 194 201 207 207 205 209 212 194 188 193 188 190 195 194 207 214 221 221 221 235 238 258 283 319 333 331 328 344 8 11 13 16 17
274 269 267 265 262 258 255 253 251 247 242 238 235 231 227 223 221 221 219 218 218 218 217 215 213 213 213 213 212 212 212 213 212 212 211 211 211 210 208 209 208 206 205 204 203 202 199 198 197 197 197 196 196 198 196 194 199 210 212 210 210 205 198 197 197 195 197 191 183 206 218 225 221 217 231 244 278 290 316 328 321 320 352 11 10 12 14 15
279 271 266 263 261 259 255 252 250 248 244 240 236 233 229 225 222 220 220 218 217 218 218 216 214 213 212 213 214 213 213 214 214 214 213 211 211 210 209 210 209 208 206 204 203 203 201 199 198 198 197 196 196 198 197 193 195 210 216 214 210 206 202 199 201 203 204 194 182 202 220 227 226 229 240 242 298 328 329 327 322 338 13 15 11 10 10 11
283 276 269 262 259 257 255 252 249 247 246 242 238 234 231 228 224 221 219 218 217 217 217 217 215 213 212 213 214 214 214 214 215 215 214 212 212 210 210 211 211 209 207 206 205 205 203 201 199 198 198 197 197 197 197 196 197 207 214 212 212 210 207 204 206 208 209 203 189 189 210 226 227 231 238 223 262 324 320 319 339 9 17 15 7 6 5 4
284 279 273 266 260 255 253 252 249 246 244 243 241 236 232 229 226 223 220 218 218 217 217 217 216 215 213 212 213 214 214 215 216 216 214 214 213 211 211 212 211 211 209 208 207 206 205 203 201 200 199 199 199 198 197 199 202 209 213 213 214 212 210 210 209 207 209 209 202 193 202 222 218 213 228 223 257 294 296 299 310 317 349 3 357 358 359 358
283 281 277 271 264 257 253 250 249 246 244 242 241 238 235 231 228 225 222 219 217 217 217 217 217 216 214 213 212 213 214 215 217 215 215 215 214 213 212 212 212 212 211 210 208 207 206 204 202 201 200 200 200 199 199 200 203 209 214 214 216 215 214 215 212 209 207 208 209 203 201 216 219 215 228 237 263 284 279 279 292 296 316 339 343 347 351 352
282 280 279 274 268 261 255 251 248 246 244 241 240 239 237 233 229 227 224 222 219 217 217 217 217 217 216 214 212 212 212 216 217 216 216 216 215 215 214 214 213 212 212 211 210 209 207 206 204 202 202 202 202 201 201 202 203 209 215 214 217 219 218 216 215 214 210 209 211 209 206 212 221 226 235 246 256 263 265 273 281 284 299 316 328 335 340 343
282 280 278 276 272 266 259 254 249 245 243 242 240 238 237 235 232 228 226 224 221 218 217 217 217 217 217 215 214 212 211 215 217 215 217 216 216 215 215 215 214 214 213 213 212 210 209 208 206 204 204 204 203 203 202 202 204 210 217 215 215 219 219 215 215 216 214 217 218 218 222 222 228 234 238 248 246 244 256 270 274 278 289 303 317 324 327 332
282 279 277 276 274 270 264 257 252 247 243 241 241 239 237 235 233 231 228 225 223 221 218 217 217 217 217 217 215 213 212 215 215 214 217 217 216 216 215 215 216 215 215 214 213 212 211 209 208 206 206 205 204 204 202 201 203 207 215 214 214 219 221 218 216 217 216 219 223 229 237 236 238 240 241 248 248 255 264 266 271 278 288 299 309 313 318 323
284 279 276 274 273 272 268 261 255 250 245 241 239 239 238 236 233 232 230 227 225 223 220 218 216 217 217 217 216 214 214 216 214 213 216 217 217 216 215 215 216 216 215 215 214 214 213 211 210 208 207 207 205 205 203 201 203 207 211 210 213 220 221 222 221 220 220 221 225 233 244 246 244 243 246 250 251 261 265 261 268 279 286 294 301 306 311 315
289 281 277 274 272 270 269 265 258 252 248 243 239 237 237 237 235 232 230 229 227 225 223 220 218 216 217 217 216 214 215 216 213 212 215 216 217 217 215 215 215 216 216 216 215 215 214 213 212 211 210 208 207 206 205 204 206 210 210 205 209 216 217 220 221 221 223 223 225 233 246 248 244 246 252 255 253 257 257 261 274 282 285 290 296 300 304 309
299 287 279 274 271 269 267 265 262 256 250 246 242 237 236 236 235 234 231 229 228 226 224 222 220 218 216 217 215 214 216 217 215 213 214 215 217 217 216 215 215 215 216 217 216 216 215 215 215 214 212 211 209 208 208 209 211 213 211 207 210 214 214 215 217 220 221 221 225 230 240 248 248 252 254 254 253 251 253 265 278 284 289 291 293 294 298 305
309 297 285 276 272 269 266 264 263 259 254 249 245 241 236 234 234 234 232 230 228 227 226 224 222 220 217 216 215 215 217 218 216 215 214 214 215 217 217 216 215 215 215 216 216 216 216 216 217 216 215 213 211 211 211 211 212 213 212 212 214 216 217 215 216 221 221 222 228 226 229 239 243 246 250 252 255 255 258 266 274 280 286 287 286 288 294 302
315 307 295 283 274 270 267 264 262 260 257 252 247 244 240 236 233 232 232 231 229 227 226 225 223 221 219 217 216 216 218 218 217 216 216 215 215 216 217 216 216 215 215 215 216 216 216 217 218 217 217 215 214 213 212 211 212 214 214 215 216 217 219 217 215 217 216 223 235 231 226 231 233 235 246 253 255 256 261 267 274 279 281 280 280 285 290 297
319 314 306 293 280 273 269 265 262 260 259 255 250 245 242 239 236 232 231 230 230 229 227 226 224 223 221 219 218 217 217 218 217 217 217 216 216 216 216 216 216 216 215 215 215 216 217 218 218 218 218 217 216 215 213 212 213 215 216 216 217 217 219 218 217 217 215 217 229 232 228 229 226 227 240 247 246 246 256 267 273 276 275 275 279 284 287 293
322 318 313 304 290 278 272 268 263 260 258 257 253 248 244 241 238 235 232 230 229 229 228 226 225 224 222 221 220 218 217 217 217 217 217 217 217 216 216 216 216 216 215 215 215 215 216 218 218 219 219 219 219 218 215 215 216 216 217 217 218 218 218 219 218 218 217 216 221 227 228 230 228 231 240 247 249 244 246 260 268 272 273 275 280 284 289 296
324 321 317 311 301 287 277 272 267 262 259 257 255 251 247 242 239 237 235 232 229 228 228 227 226 224 223 222 222 220 218 218 217 217 217 218 218 217 217 216 216 216 216 215 215 215 216 217 218 220 220 220 220 219 218 219 219 218 218 218 218 218 218 219 217 217 218 218 220 224 227 229 232 240 242 242 246 243 238 246 258 265 267 271 276 283 294 300
324 323 319 316 309 297 283 276 272 267 262 258 255 253 250 245 241 237 236 234 231 229 228 227 226 225 224 223 223 221 220 219 219 218 218 218 218 218 218 217 216 216 216 216 216 216 216 216 218 219 220 220 221 219 220 222 220 220 219 218 219 218 218 220 219 217 219 219 219 222 225 224 228 240 243 236 235 235 234 236 241 252 262 268 270 277 291 296
323 321 320 317 313 305 292 280 275 272 266 260 256 253 251 248 244 239 236 234 233 231 229 227 227 226 224 224 223 222 221 220 220 219 218 218 218 218 219 218 218 217 216 216 217 216 216 216 217 219 220 220 220 219 221 222 222 221 220 220 219 219 219 221 220 219 220 220 219 221 222 219 219 229 239 238 235 233 235 237 233 238 253 263 265 274 288 292
322 319 318 317 314 309 299 286 278 275 270 263 258 254 251 249 246 242 238 235 233 231 230 228 227 226 225 224 223 222 222 221 221 219 218 218 218 218 219 219 219 218 217 217 217 217 217 217 217 219 219 220 219 218 220 222 222 223 223 223 222 221 221 221 222 222 221 221 220 221 221 220 219 224 232 238 239 235 234 235 228 224 238 253 261 273 284 290
323 318 316 315 313 309 302 291 281 277 273 267 260 255 252 249 247 244 241 237 235 233 231 230 228 226 225 225 224 224 224 223 221 220 219 219 218 218 218 219 219 219 218 218 217 217 217 217 217 218 219 220 220 219 219 220 221 222 224 225 225 225 224 222 224 224 222 221 221 220 220 221 221 223 228 235 237 233 232 230 224 222 227 239 255 267 277 289
324 318 315 313 312 308 302 294 284 278 275 269 262 256 253 250 247 245 243 240 237 234 232 231 229 227 225 224 224 224 224 223 222 220 220 220 219 218 218 218 219 219 219 219 218 217 217 217 217 218 219 220 221 220 220 220 221 221 223 225 225 226 225 224 227 227 224 223 223 221 221 222 223 224 228 232 234 232 231 227 222 222 225 235 250 257 269 286
324 319 314 311 310 307 301 294 286 280 276 270 263 257 253 251 248 246 244 242 238 236 234 232 230 228 226 224 224 224 224 223 222 221 221 220 220 219 219 219 219 219 219 219 219 218 218 217 217 218 218 220 221 221 221 221 221 221 223 223 224 225 225 224 227 228 226 226 225 222 222 224 224 224 226 230 234 234 232 229 225 226 233 245 251 251 264 279
325 319 313 310 308 305 300 293 286 281 276 270 263 258 254 251 248 247 245 243 240 237 235 233 231 230 228 225 225 225 224 223 223 222 222 221 220 220 219 219 219 219 219 219 219 219 219 218 218 218 218 219 220 221 222 221 220 221 223 224 224 225 224 223 225 227 227 228 227 224 224 225 224 223 225 228 233 234 232 228 225 229 238 242 241 250 266 269
326 319 313 310 307 304 299 292 287 281 276 269 262 257 255 252 250 247 244 243 240 238 236 234 232 230 228 227 227 226 224 223 222 222 223 222 221 220 220 220 219 219 219 219 219 219 220 219 219 219 219 219 220 221 222 220 219 221 223 224 225 225 224 223 225 225 226 227 228 227 226 225 224 225 226 227 230 231 228 225 226 233 236 232 238 253 262 258
325 318 313 309 307 303 298 292 287 282 278 270 261 255 252 251 250 248 246 243 240 238 236 235 233 230 228 228 228 227 225 223 221 221 223 223 221 220 220 220 220 219 219 219 219 219 220 220 221 220 219 219 219 221 222 220 219 221 223 224 225 225 224 224 225 226 226 227 228 228 228 227 225 225 226 228 230 230 228 228 231 235 235 238 251 257 256 256
324 318 313 310 307 303 297 291 287 284 279 271 263 256 251 248 248 247 246 244 242 238 236 235 234 231 228 227 227 227 226 223 221 221 222 222 221 221 220 220 220 220 219 219 219 219 219 220 221 221 220 220 220 221 222 220 220 222 222 224 225 225 225 225 226 227 227 228 229 229 230 229 227 227 228 229 231 231 232 233 234 238 240 246 258 259 258 261
323 317 313 311 309 304 298 293 289 286 280 272 265 259 254 250 246 245 244 243 242 240 238 237 235 232 230 228 226 227 226 223 222 222 222 222 221 221 221 220 220 220 219 219 219 219 219 220 220 221 221 220 221 222 221 221 221 222 222 224 225 225 225 225 227 228 228 229 230 230 231 231 229 229 229 229 231 232 235 236 237 239 239 240 250 257 260 262
322 317 314 313 310 305 299 296 293 289 283 275 268 262 258 253 248 244 242 241 241 239 237 236 235 232 230 229 227 227 225 223 223 222 222 222 221 221 222 221 220 220 219 219 219 219 220 220 220 221 221 220 221 221 221 221 222 223 223 224 225 225 225 225 226 227 228 229 229 230 231 231 231 231 230 229 232 235 237 237 235 235 239 242 248 254 257 259
321 317 315 315 311 305 301 299 296 292 285 279 273 268 262 257 252 247 243 240 238 237 234 234 235 233 230 229 228 228 226 224 222 221 222 222 221 222 222 221 221 221 220 219 219 219 220 220 219 220 220 220 221 221 220 221 223 223 223 223 224 225 225 226 226 227 229 229 229 230 231 231 230 231 231 230 232 235 238 238 236 237 243 248 251 253 254 257
320 317 317 316 312 307 304 302 299 294 288 282 278 273 268 262 256 251 246 241 238 236 232 232 234 234 232 230 229 227 226 225 222 221 222 222 220 221 221 221 221 221 220 220 220 220 221 220 219 219 220 219 220 221 221 221 223 224 223 223 224 224 225 226 226 228 231 231 231 232 232 232 231 230 231 231 232 234 236 238 239 239 242 245 247 249 250 254
321 319 319 318 314 309 307 305 302 297 292 288 282 277 271 265 259 254 250 244 239 236 233 231 232 233 232 231 230 228 226 225 223 221 223 222 220 220 220 220 220 221 220 220 219 220 221 220 219 219 219 219 220 221 221 221 223 224 224 224 224 224 226 226 225 227 229 229 231 232 232 232 232 232 232 232 233 234 235 237 238 239 240 241 243 245 247 249
322 321 321 320 315 311 309 308 306 302 299 295 289 283 276 270 262 256 251 246 241 238 234 230 230 230 231 231 229 228 227 225 222 221 223 223 221 220 219 219 219 220 220 220 219 219 220 219 218 218 219 220 220 221 222 222 224 225 224 224 224 224 225 226 225 226 227 227 228 230 230 230 231 231 231 232 233 234 235 236 238 237 237 239 241 244 247 248
323 322 323 321 317 314 312 311 310 308 307 303 297 291 284 276 267 258 250 244 240 237 233 230 227 227 228 229 229 228 227 225 222 221 222 223 222 221 220 219 218 219 219 219 219 219 220 219 218 218 219 220 220 220 221 222 223 225 225 225 224 224 224 225 225 225 226 226 228 229 230 229 230 231 231 233 234 234 235 235 236 236 237 238 241 243 246 247
324 324 324 323 320 318 316 316 316 315 314 312 310 303 293 280 269 260 251 242 237 234 232 229 226 225 225 226 227 227 226 224 222 221 222 222 222 221 220 220 219 219 219 218 218 219 220 219 218 218 219 219 219 220 220 220 222 223 223 223 223 224 224 224 224 225 225 226 228 230 231 230 231 232 232 233 234 235 235 235 235 237 238 240 242 244 245 246
326 325 325 325 324 322 320 321 322 322 322 321 318 310 297 282 269 260 251 243 236 232 229 228 225 223 222 223 224 224 224 223 221 220 221 222 221 221 220 219 218 219 219 219 219 220 220 220 218 218 219 219 219 220 219 219 220 221 222 222 222 223 223 222 224 225 225 226 227 230 230 230 230 231 232 231 232 235 236 236 236 237 238 240 243 244 245 246
327 326 325 326 326 325 324 326 327 328 327 326 323 314 300 285 270 259 250 243 237 231 227 225 223 222 221 221 221 220 221 222 220 220 221 222 222 222 221 220 220 220 220 219 220 220 220 220 219 218 219 219 219 220 220 219 219 220 221 221 222 223 223 222 223 225 225 226 228 229 229 229 229 230 231 231 231 234 236 237 238 237 238 240 242 243 244 245
327 326 327 328 329 328 328 330 331 331 330 329 326 320 308 291 274 261 251 243 237 231 226 224 222 221 221 220 220 219 219 219 218 217 220 221 222 223 222 221 221 221 220 220 221 220 220 220 219 218 220 220 220 221 221 221 221 221 221 221 221 223 224 224 224 226 227 228 229 230 229 229 229 229 230 230 230 231 233 235 236 236 237 238 240 241 241 242
326 327 329 330 331 331 331 333 333 332 333 333 332 327 319 304 285 267 253 244 238 233 227 224 222 221 221 220 219 218 218 218 217 216 218 219 219 220 220 219 219 219 219 220 221 221 220 220 219 217 219 220 220 221 221 221 222 222 222 222 222 223 224 224 224 224 225 227 229 229 228 228 228 228 229 230 229 229 230 232 233 233 234 236 237 239 239 238
326 329 332 331 331 332 333 334 334 335 336 338 338 333 326 314 296 275 258 247 239 234 229 225 221 220 220 219 218 218 217 217 217 216 217 218 218 218 218 218 217 218 218 219 220 221 220 220 218 217 219 220 219 220 221 220 221 221 220 221 221 223 224 224 223 223 224 225 226 228 228 228 228 228 229 231 230 229 229 230 232 232 233 234 235 237 238 237
326 332 334 329 329 332 335 336 337 339 341 342 341 335 326 317 303 283 266 251 240 232 229 226 222 219 218 218 218 218 217 216 216 216 217 218 217 217 217 216 216 216 217 218 220 220 219 219 217 216 218 219 219 219 220 220 221 221 220 220 221 222 224 223 223 222 223 225 226 227 228 227 227 228 228 229 230 230 229 229 230 231 232 232 233 234 236 235
327 335 335 328 329 333 336 338 340 342 344 344 343 337 329 323 310 289 270 253 240 230 227 225 223 220 218 217 217 218 218 217 217 216 217 218 218 217 217 216 215 216 216 217 218 219 218 218 217 216 216 218 219 219 219 219 221 222 222 221 221 223 225 224 223 222 222 223 225 227 229 226 224 226 227 228 229 229 229 230 229 229 230 231 232 232 233 233
330 338 335 329 330 334 337 340 342 345 347 347 344 341 336 329 318 296 274 256 239 229 225 223 222 220 218 217 217 217 218 219 219 218 218 218 218 218 217 216 216 216 217 217 218 219 219 218 218 217 216 218 219 220 220 220 220 222 222 221 221 223 224 223 222 221 221 222 224 226 228 226 224 226 227 227 229 229 230 230 230 229 230 231 232 232 232 232
332 338 335 330 331 335 339 342 346 349 350 348 346 345 341 336 326 306 280 262 244 231 225 222 221 221 218 217 217 217 217 219 220 220 219 219 219 218 217 217 217 217 218 219 219 219 219 219 219 217 217 218 218 218 219 219 219 220 220 221 221 222 223 224 224 223 222 223 225 227 228 228 227 227 228 227 228 230 230 231 230 229 230 232 232 232 232 231
334 340 337 330 331 337 341 344 347 350 351 350 348 347 345 342 332 314 287 265 249 233 225 222 221 221 220 219 218 217 217 218 218 219 219 220 220 219 218 217 217 217 218 219 218 218 218 218 218 217 217 217 217 217 218 218 218 219 219 220 221 222 222 223 225 226 226 227 229 230 229 229 229 229 231 231 231 231 231 231 230 229 230 231 231 231 231 231
337 342 336 329 331 339 342 344 348 352 353 352 351 348 347 346 338 323 297 270 250 234 226 222 222 221 221 221 221 220 219 218 218 219 219 219 219 219 218 217 217 217 218 218 218 218 218 218 217 217 217 218 217 217 218 218 218 218 219 220 221 222 223 223 222 223 225 228 230 230 228 228 228 228 229 232 232 232 232 232 231 230 230 231 231 230 230 230
340 339 332 330 334 339 342 345 349 354 355 355 353 351 349 348 345 334 307 277 253 236 225 220 220 220 219 221 223 223 220 218 218 219 218 218 218 218 218 218 218 218 218 218 218 218 219 219 218 218 217 218 218 217 218 218 218 219 220 220 220 221 223 223 222 223 223 225 228 229 228 228 228 227 226 228 229 230 231 233 233 231 231 231 231 231 230 230
338 335 332 334 335 337 342 347 351 355 358 357 356 355 353 350 349 344 324 284 259 240 226 218 217 217 216 217 219 222 221 219 220 220 219 219 218 217 218 218 218 218 218 219 219 218 219 219 218 218 218 218 217 217 217 218 218 218 220 221 221 222 222 221 221 223 223 224 226 226 226 227 229 229 228 228 228 228 229 231 232 232 232 232 232 231 230 230
335 336 336 335 334 337 343 347 352 357 359 360 360 358 356 354 351 349 343 306 260 242 230 221 216 215 216 217 219 220 219 218 220 221 220 219 218 217 217 217 218 219 219 219 219 219 219 219 218 219 220 219 219 218 218 218 218 218 219 220 221 222 223 222 222 223 222 224 225 225 225 226 227 229 230 231 230 229 229 229 230 230 231 232 232 232 232 231
339 342 337 332 333 338 343 348 354 358 360 1 2 1 359 357 354 351 349 336 277 239 232 225 217 213 212 213 218 220 216 214 216 218 219 218 217 216 215 214 215 217 217 218 219 219 220 220 219 220 221 220 219 219 219 219 219 218 218 218 219 221 222 222 224 224 223 223 224 225 226 226 226 226 228 230 231 231 230 229 229 229 230 231 231 232 232 232
347 344 332 329 335 340 344 349 354 359 1 2 2 3 3 1 359 354 351 348 325 242 227 225 220 215 212 213 218 220 218 217 217 217 217 216 216 215 213 213 213 214 215 216 218 219 220 219 220 221 221 221 220 219 219 220 219 219 218 217 218 220 221 221 223 223 222 222 223 224 225 227 226 226 227 228 228 229 229 229 230 230 230 230 231 231 232 232
349 339 327 330 339 342 346 351 355 359 2 2 2 3 3 4 4 0 355 353 346 295 224 219 219 217 215 216 219 220 220 220 221 221 218 215 215 216 215 213 213 213 214 215 216 218 218 219 220 221 222 222 221 220 220 220 220 219 218 216 216 219 220 221 222 223 222 222 223 223 224 225 226 225 226 227 227 227 227 228 229 230 230 230 230 231 232 232
Height
10894 10893 10893 10893 10893 10894 10895 10896 10898 10900 10902 10904 10906 10908 10910 10912 10914 10916 10918 10920 10922 10924 10927 10929 10932 10934 10937 10940 10943 10946 10949 10952 10954 10957 10960 10963 10967 10972 10975 10977 10980 10982 10985 10988 10990 10993 10996 10999 11002 11005 11007 11010 11011 11013 11016 11018 11020 11020 11020 11021 11024 11025 11025 11025 11024 11025 11027 11029 11031 11032 11033 11034 11035 11035 11034 11034 11033 11032 11032 11032 11032 11032 11032 11032 11031 11030 11030 11029
10889 10889 10889 10888 10889 10889 10890 10891 10892 10894 10896 10898 10900 10903 10905 10907 10909 10911 10913 10915 10917 10919 10922 10925 10928 10930 10933 10936 10939 10942 10946 10948 10951 10954 10957 10961 10965 10969 10972 10974 10977 10979 10982 10986 10989 10991 10994 10996 10999 11002 11005 11007 11009 11012 11014 11017 11019 11019 11018 11020 11022 11023 11023 11023 11023 11024 11025 11028 11030 11030 11031 11033 11034 11034 11034 11034 11033 11032 11032 11032 11032 11032 11033 11032 11031 11031 11030 11030
10884 10884 10884 10884 10884 10884 10885 10886 10887 10888 10890 10892 10895 10897 10899 10901 10903 10906 10908 10910 10912 10914 10917 10920 10923 10926 10929 10932 10935 10938 10941 10944 10948 10950 10954 10958 10962 10966 10969 10971 10974 10977 10980 10983 10985 10987 10990 10992 10995 10999 11002 11005 11007 11010 11013 11016 11018 11017 11016 11018 11020 11021 11022 11022 11023 11023 11024 11026 11029 11030 11030 11032 11033 11033 11034 11034 11034 11033 11033 11033 11032 11033 11033 11032 11032 11031 11030 11030
10880 10879 10879 10878 10879 10879 10880 10880 10882 10883 10884 10886 10888 10890 10893 10896 10898 10900 10902 10905 10907 10910 10912 10915 10918 10921 10924 10927 10931 10934 10937 10941 10944 10946 10951 10955 10958 10962 10965 10967 10971 10974 10977 10980 10982 10984 10987 10990 10994 10997 11001 11003 11005 11008 11012 11014 11014 11013 11013 11015 11017 11019 11021 11022 11022 11023 11023 11025 11028 11030 11030 11031 11032 11033 11033 11033 11033 11033 11034 11033 11032 11033 11032 11032 11031 11031 11031 11030
10875 10874 10873 10873 10873 10874 10874 10875 10876 10877 10879 10880 10882 10884 10887 10889 10892 10895 10897 10899 10902 10905 10907 10910 10913 10916 10919 10922 10926 10929 10933 10937 10938 10941 10947 10950 10954 10958 10961 10964 10967 10971 10974 10976 10979 10982 10985 10989 10992 10996 10999 11001 11003 11005 11009 11011 11011 11011 11012 11014 11015 11017 11019 11020 11021 11022 11023 11025 11028 11029 11030 11030 11031 11032 11033 11033 11032 11033 11033 11033 11032 11032 11032 11031 11031 11032 11031 11031
10870 10869 10868 10868 10868 10868 10869 10869 10870 10872 10873 10874 10876 10877 10880 10883 10886 10889 10891 10894 10896 10899 10902 10904 10907 10910 10914 10917 10920 10924 10929 10931 10931 10937 10942 10945 10950 10954 10957 10960 10963 10967 10970 10973 10976 10979 10982 10986 10990 10993 10996 10999 11001 11003 11005 11007 11009 11011 11012 11013 11014 11016 11018 11019 11021 11022 11023 11025 11027 11028 11029 11030 11030 11031 11032 11032 11032 11032 11033 11032 11032 11032 11032 11031 11032 11032 11032 11032
10866 10864 10863 10862 10862 10862 10863 10863 10864 10866 10867 10868 10869 10871 10873 10876 10879 10882 10885 10887 10890 10893 10896 10899 10901 10905 10908 10911 10915 10919 10924 10925 10927 10934 10938 10941 10946 10950 10953 10956 10959 10963 10966 10970 10973 10976 10980 10983 10987 10990 10993 10995 10998 11000 11002 11004 11007 11010 11011 11011 11013 11015 11016 11018 11020 11021 11023 11024 11025 11026 11027 11029 11029 11029 11030 11031 11033 11032 11032 11031 11031 11032 11032 11032 11032 11032 11032 11033
10861 10859 10858 10857 10857 10856 10857 10857 10858 10860 10861 10862 10863 10865 10867 10869 10873 10876 10879 10881 10884 10887 10890 10893 10896 10899 10902 10906 10910 10913 10920 10920 10921 10928 10931 10935 10941 10944 10949 10952 10956 10959 10962 10966 10970 10974 10977 10981 10984 10987 10989 10992 10996 10998 11000 11003 11005 11009 11009 11009 11011 11013 11014 11016 11018 11019 11021 11022 11022 11024 11026 11026 11027 11028 11029 11030 11032 11032 11031 11030 11030 11031 11031 11032 11032 11032 11032 11033
10855 10854 10853 10852 10851 10851 10850 10851 10852 10853 10854 10855 10856 10858 10860 10863 10865 10868 10872 10875 10878 10881 10884 10887 10890 10893 10896 10900 10904 10909 10914 10910 10915 10924 10926 10930 10934 10938 10944 10948 10952 10955 10959 10963 10967 10971 10974 10977 10981 10984 10987 10989 10992 10994 10996 10999 11002 11004 11004 11006 11009 11010 11012 11014 11016 11017 11019 11021 11021 11022 11023 11024 11025 11026 11027 11029 11030 11030 11030 11029 11029 11030 11031 11031 11031 11032 11032 11033
10850 10848 10847 10846 10846 10845 10844 10844 10845 10846 10847 10848 10849 10851 10853 10856 10858 10861 10864 10867 10871 10874 10877 10880 10884 10887 10891 10894 10899 10904 10905 10903 10911 10919 10919 10923 10927 10932 10938 10943 10947 10951 10955 10959 10962 10966 10969 10973 10977 10980 10982 10984 10987 10989 10992 10994 10997 10999 11000 11004 11007 11008 11010 11012 11014 11016 11017 11018 11020 11021 11020 11021 11023 11024 11025 11027 11028 11028 11029 11028 11028 11029 11030 11030 11031 11032 11032 11033
10845 10843 10841 10840 10839 10838 10838 10837 10837 10838 10839 10840 10842 10844 10846 10848 10851 10854 10857 10860 10863 10866 10870 10874 10877 10880 10885 10888 10894 10898 10895 10897 10906 10910 10912 10917 10921 10926 10932 10937 10942 10946 10950 10954 10958 10962 10965 10970 10973 10976 10978 10981 10984 10987 10989 10991 10993 10995 10997 11002 11004 11006 11008 11010 11013 11015 11015 11016 11018 11018 11016 11019 11021 11023 11024 11025 11025 11027 11027 11027 11027 11028 11029 11029 11030 11031 11032 11033
10840 10838 10836 10834 10832 10831 10831 10830 10830 10830 10831 10832 10834 10836 10838 10841 10843 10846 10849 10852 10855 10859 10862 10867 10870 10874 10878 10882 10888 10889 10887 10892 10900 10903 10907 10911 10915 10921 10926 10931 10936 10940 10945 10949 10953 10957 10962 10966 10968 10971 10974 10978 10981 10984 10987 10989 10991 10993 10996 10999 11001 11003 11005 11008 11011 11012 11012 11013 11015 11015 11014 11016 11019 11022 11023 11022 11023 11025 11026 11026 11026 11027 11028 11029 11030 11030 11032 11032
10834 10832 10830 10828 10826 10825 10823 10823 10823 10823 10823 10824 10826 10828 10830 10832 10835 10838 10841 10844 10847 10851 10854 10859 10863 10867 10871 10877 10881 10879 10880 10888 10893 10897 10902 10905 10910 10914 10919 10925 10930 10935 10939 10943 10948 10952 10957 10960 10962 10966 10970 10973 10976 10979 10981 10983 10987 10989 10993 10996 10998 11001 11003 11007 11009 11009 11010 11011 11012 11013 11015 11016 11018 11021 11022 11021 11023 11024 11025 11025 11026 11026 11027 11028 11029 11030 11031 11032
10829 10826 10824 10822 10820 10818 10816 10816 10815 10815 10815 10816 10817 10819 10821 10824 10826 10829 10832 10836 10839 10842 10846 10850 10855 10860 10864 10869 10870 10871 10876 10882 10886 10891 10895 10898 10903 10907 10912 10918 10923 10928 10933 10938 10943 10947 10952 10953 10956 10961 10964 10967 10971 10972 10974 10979 10984 10987 10990 10993 10995 10999 11002 11004 11006 11006 11008 11008 11008 11010 11013 11015 11018 11021 11021 11021 11024 11024 11024 11025 11025 11025 11026 11027 11028 11029 11031 11032
10823 10820 10818 10816 10814 10812 10809 10808 10808 10808 10807 10807 10808 10810 10812 10815 10818 10821 10824 10827 10830 10834 10838 10841 10847 10851 10856 10860 10863 10866 10871 10874 10879 10884 10887 10892 10896 10900 10905 10910 10916 10922 10927 10932 10937 10941 10945 10946 10950 10955 10958 10963 10966 10967 10972 10979 10982 10985 10988 10990 10992 10996 10998 11001 11004 11006 11006 11006 11006 11008 11011 11013 11016 11019 11018 11019 11022 11024 11023 11023 11024 11025 11025 11026 11027 11029 11030 11031
10818 10814 10811 10809 10807 10805 10803 10801 10800 10800 10799 10799 10799 10800 10803 10806 10809 10812 10815 10818 10821 10825 10829 10833 10838 10842 10848 10853 10854 10857 10862 10866 10872 10876 10879 10885 10889 10894 10899 10903 10909 10915 10920 10926 10930 10934 10937 10940 10946 10950 10953 10959 10961 10965 10973 10977 10978 10981 10984 10986 10989 10991 10994 10999 11003 11004 11004 11004 11005 11006 11009 11012 11014 11015 11016 11017 11020 11023 11023 11022 11023 11024 11024 11025 11026 11028 11029 11030
10812 10808 10805 10802 10800 10798 10796 10794 10792 10792 10791 10790 10790 10791 10793 10796 10799 10802 10806 10809 10813 10816 10820 10825 10829 10833 10839 10841 10842 10849 10856 10861 10865 10868 10872 10877 10882 10887 10891 10896 10902 10907 10913 10919 10923 10926 10930 10936 10942 10944 10949 10954 10957 10964 10971 10972 10974 10976 10978 10981 10984 10987 10991 10994 10997 11000 11001 11002 11004 11005 11008 11010 11012 11013 11015 11018 11018 11021 11024 11023 11023 11023 11023 11024 11025 11026 11028 11029
10805 10801 10798 10795 10792 10790 10788 10786 10784 10783 10783 10782 10781 10782 10783 10785 10789 10792 10796 10799 10803 10807 10811 10816 10820 10824 10829 10833 10837 10845 10851 10855 10858 10861 10866 10870 10875 10880 10883 10889 10895 10900 10906 10911 10915 10920 10926 10932 10935 10938 10944 10948 10954 10962 10965 10965 10967 10970 10972 10976 10979 10982 10988 10990 10992 10996 10998 11000 11002 11004 11007 11010 11013 11012 11013 11016 11018 11020 11023 11023 11023 11023 11022 11023 11024 11025 11027 11028
10798 10794 10790 10787 10785 10782 10780 10778 10777 10775 10774 10774 10773 10773 10774 10775 10778 10782 10785 10789 10793 10798 10803 10807 10810 10815 10822 10825 10828 10835 10842 10846 10848 10852 10858 10863 10868 10871 10876 10883 10888 10893 10899 10903 10908 10915 10921 10925 10930 10934 10938 10943 10949 10955 10956 10957 10961 10964 10968 10971 10974 10979 10984 10986 10989 10993 10995 10997 11000 11002 11005 11009 11012 11011 11009 11010 11015 11020 11022 11022 11024 11024 11022 11022 11023 11024 11026 11027
10791 10787 10783 10780 10776 10774 10772 10770 10769 10767 10766 10765 10764 10764 10765 10765 10768 10771 10774 10778 10782 10787 10792 10795 10799 10806 10811 10813 10818 10827 10832 10833 10836 10844 10851 10856 10859 10863 10869 10875 10880 10886 10892 10895 10901 10908 10914 10920 10926 10928 10932 10936 10941 10946 10947 10950 10956 10960 10964 10968 10972 10977 10980 10982 10985 10988 10991 10994 10997 10999 11002 11006 11008 11010 11008 11008 11012 11018 11021 11021 11023 11024 11022 11022 11022 11023 11024 11025
10783 10779 10775 10772 10768 10766 10763 10761 10760 10758 10757 10756 10756 10756 10756 10756 10759 10761 10763 10767 10772 10777 10780 10784 10790 10796 10800 10806 10816 10821 10821 10822 10829 10838 10843 10846 10850 10855 10862 10866 10871 10879 10883 10887 10894 10901 10908 10915 10919 10922 10925 10929 10933 10937 10940 10944 10951 10956 10961 10965 10970 10972 10974 10979 10981 10983 10987 10990 10992 10994 10999 11002 11005 11007 11007 11008 11011 11015 11018 11020 11022 11023 11023 11023 11022 11021 11023 11024
10776 10771 10767 10763 10760 10757 10755 10753 10751 10750 10749 10748 10747 10747 10747 10748 10750 10751 10753 10757 10762 10766 10769 10774 10779 10784 10791 10801 10806 10805 10805 10811 10821 10828 10833 10837 10842 10847 10853 10858 10864 10870 10874 10880 10888 10894 10901 10907 10911 10914 10917 10922 10926 10930 10936 10941 10947 10952 10957 10960 10964 10965 10970 10977 10978 10978 10983 10985 10988 10993 10996 10998 11001 11003 11004 11006 11009 11013 11015 11018 11021 11023 11023 11024 11022 11021 11022 11023
10767 10763 10759 10755 10752 10749 10746 10744 10743 10742 10740 10739 10738 10738 10738 10739 10741 10742 10743 10746 10751 10755 10758 10763 10767 10774 10782 10788 10790 10790 10795 10804 10811 10817 10823 10827 10832 10839 10846 10851 10857 10862 10866 10874 10881 10887 10893 10898 10902 10905 10910 10915 10919 10925 10932 10936 10943 10949 10951 10953 10955 10958 10964 10971 10970 10972 10979 10982 10986 10991 10993 10994 10996 10999 11002 11004 11007 11010 11013 11016 11019 11020 11021 11021 11020 11020 11020 11021
10758 10754 10751 10747 10744 10740 10738 10736 10734 10733 10732 10731 10730 10729 10730 10731 10732 10733 10734 10736 10740 10743 10747 10752 10757 10763 10768 10774 10779 10781 10788 10797 10803 10809 10813 10817 10824 10833 10838 10843 10849 10853 10859 10867 10873 10879 10884 10888 10892 10896 10902 10908 10913 10920 10924 10930 10940 10944 10944 10946 10948 10952 10958 10963 10964 10969 10975 10978 10982 10986 10988 10989 10992 10997 11000 11003 11005 11007 11010 11013 11015 11016 11017 11016 11017 11018 11018 11019
10749 10745 10741 10739 10735 10732 10729 10727 10726 10724 10724 10723 10722 10722 10721 10722 10722 10723 10724 10726 10729 10733 10737 10741 10746 10750 10757 10765 10768 10768 10776 10785 10792 10799 10803 10807 10816 10824 10829 10834 10840 10846 10852 10858 10864 10869 10874 10879 10883 10889 10896 10903 10909 10912 10914 10925 10936 10936 10936 10939 10940 10946 10952 10956 10960 10965 10969 10972 10976 10979 10981 10985 10989 10993 10996 11000 11003 11005 11007 11010 11011 11012 11013 11013 11013 11014 11015 11016
10740 10736 10733 10730 10727 10724 10721 10719 10718 10716 10715 10714 10714 10714 10713 10713 10713 10713 10715 10715 10718 10723 10727 10731 10734 10740 10748 10753 10753 10757 10766 10773 10780 10789 10792 10797 10807 10814 10819 10825 10830 10836 10843 10849 10855 10861 10867 10871 10875 10883 10890 10895 10901 10903 10908 10923 10930 10927 10929 10930 10932 10940 10946 10951 10957 10961 10965 10968 10970 10973 10976 10981 10986 10989 10993 10996 10999 11001 11003 11005 11007 11009 11009 11009 11008 11008 11011 11013
10731 10727 10724 10720 10718 10716 10713 10711 10709 10708 10707 10705 10705 10705 10705 10706 10705 10705 10705 10704 10708 10715 10718 10721 10724 10730 10735 10737 10743 10749 10753 10759 10770 10779 10781 10788 10797 10803 10808 10814 10820 10826 10833 10841 10848 10855 10859 10862 10867 10874 10880 10887 10894 10898 10907 10920 10920 10917 10921 10922 10927 10935 10941 10949 10955 10957 10960 10963 10965 10970 10973 10977 10983 10987 10989 10992 10995 10998 11000 11001 11005 11007 11007 11007 11003 11002 11006 11010
10722 10718 10715 10712 10709 10707 10705 10703 10701 10699 10698 10697 10696 10696 10696 10696 10695 10695 10694 10694 10700 10707 10710 10711 10713 10718 10722 10728 10735 10735 10737 10751 10764 10768 10770 10776 10785 10791 10796 10802 10808 10816 10825 10834 10841 10846 10848 10852 10859 10865 10872 10883 10890 10894 10902 10909 10908 10908 10913 10917 10923 10931 10938 10945 10948 10950 10954 10957 10962 10967 10970 10974 10979 10982 10984 10988 10990 10993 10996 10999 11004 11007 11006 11007 11003 10999 11002 11007
10713 10710 10706 10703 10700 10698 10696 10695 10693 10691 10689 10688 10687 10686 10686 10686 10685 10685 10684 10687 10693 10696 10699 10700 10700 10706 10713 10719 10721 10720 10729 10744 10750 10753 10758 10765 10777 10783 10785 10792 10800 10808 10819 10826 10831 10836 10838 10842 10850 10858 10868 10878 10881 10884 10892 10896 10898 10901 10908 10914 10920 10927 10933 10936 10940 10945 10948 10951 10957 10962 10964 10968 10973 10976 10979 10984 10986 10989 10992 10995 11001 11004 11003 11005 11003 11000 11003 11007
10705 10702 10698 10695 10692 10689 10688 10686 10684 10682 10680 10679 10678 10676 10676 10674 10673 10673 10674 10678 10683 10684 10688 10688 10688 10696 10703 10706 10708 10713 10726 10731 10734 10743 10749 10757 10769 10773 10776 10788 10796 10802 10810 10815 10820 10825 10826 10832 10845 10854 10863 10869 10869 10873 10882 10887 10889 10893 10902 10909 10914 10921 10925 10929 10936 10940 10941 10946 10952 10955 10957 10962 10967 10970 10974 10979 10982 10984 10987 10990 10996 10998 10998 11000 11000 11000 11003 11006
10697 10694 10691 10687 10684 10682 10680 10678 10676 10674 10672 10671 10668 10667 10665 10662 10661 10661 10663 10668 10670 10671 10676 10677 10679 10686 10692 10694 10698 10707 10715 10716 10726 10739 10743 10748 10757 10759 10768 10780 10785 10790 10798 10804 10811 10815 10817 10828 10842 10849 10855 10858 10858 10864 10875 10880 10881 10886 10896 10902 10907 10914 10918 10925 10933 10937 10938 10944 10948 10949 10952 10956 10960 10964 10969 10975 10979 10981 10983 10985 10989 10992 10994 10996 10997 10999 11002 11004
10690 10687 10683 10680 10677 10674 10672 10670 10668 10666 10664 10662 10659 10656 10653 10650 10649 10649 10652 10656 10657 10659 10664 10668 10671 10676 10679 10683 10690 10697 10701 10707 10722 10732 10732 10736 10742 10747 10757 10767 10771 10778 10785 10792 10799 10802 10809 10822 10833 10839 10843 10843 10847 10857 10866 10871 10874 10880 10889 10896 10902 10909 10914 10921 10927 10929 10932 10937 10940 10941 10945 10949 10954 10960 10966 10970 10973 10976 10979 10981 10984 10987 10991 10993 10993 10996 11000 11002
10683 10680 10676 10673 10670 10667 10664 10662 10660 10658 10655 10652 10649 10646 10642 10639 10638 10638 10640 10643 10645 10648 10653 10658 10662 10665 10669 10674 10680 10684 10691 10702 10715 10720 10721 10724 10730 10738 10746 10752 10759 10766 10771 10777 10784 10790 10799 10809 10820 10828 10831 10834 10844 10854 10861 10866 10869 10874 10882 10889 10896 10903 10909 10916 10921 10922 10924 10928 10929 10930 10935 10941 10948 10955 10961 10963 10968 10972 10974 10977 10980 10983 10987 10989 10990 10992 10996 10999
10676 10673 10670 10666 10663 10660 10657 10655 10653 10650 10646 10642 10639 10636 10632 10628 10626 10626 10628 10631 10633 10636 10640 10645 10650 10655 10660 10663 10667 10674 10684 10696 10704 10709 10711 10713 10720 10729 10735 10740 10748 10754 10756 10763 10774 10783 10789 10798 10812 10820 10821 10828 10840 10846 10851 10857 10862 10868 10876 10883 10890 10896 10902 10907 10911 10913 10915 10919 10920 10921 10927 10937 10944 10950 10955 10958 10963 10967 10969 10973 10976 10979 10982 10984 10985 10989 10993 10997
10670 10667 10663 10660 10657 10653 10650 10648 10645 10642 10638 10634 10629 10626 10623 10620 10617 10616 10618 10620 10621 10624 10628 10633 10639 10645 10649 10651 10656 10667 10676 10684 10691 10697 10699 10703 10711 10718 10721 10729 10737 10739 10741 10753 10766 10772 10777 10791 10804 10808 10809 10819 10830 10832 10840 10850 10854 10857 10864 10873 10881 10887 10892 10898 10901 10902 10905 10911 10914 10914 10923 10934 10940 10945 10949 10954 10959 10961 10964 10969 10973 10975 10978 10979 10981 10986 10990 10994
10664 10661 10658 10655 10651 10647 10644 10641 10638 10634 10631 10626 10622 10617 10614 10612 10610 10609 10609 10610 10611 10615 10618 10623 10628 10633 10637 10640 10648 10659 10665 10670 10679 10687 10689 10693 10698 10701 10706 10715 10722 10724 10734 10751 10761 10764 10774 10784 10791 10795 10801 10813 10820 10822 10832 10840 10840 10844 10855 10867 10874 10876 10882 10888 10890 10893 10898 10905 10906 10908 10919 10930 10935 10938 10942 10949 10954 10956 10960 10965 10967 10971 10974 10976 10978 10982 10986 10990
10659 10656 10653 10650 10646 10643 10639 10636 10632 10628 10624 10620 10615 10611 10607 10606 10604 10602 10602 10603 10604 10607 10610 10613 10617 10621 10625 10630 10638 10647 10652 10659 10670 10678 10679 10682 10687 10692 10701 10711 10717 10724 10739 10752 10753 10758 10767 10769 10776 10789 10795 10802 10809 10811 10820 10826 10829 10840 10852 10860 10865 10866 10872 10878 10882 10885 10891 10899 10901 10904 10916 10924 10926 10930 10936 10943 10947 10951 10956 10958 10961 10966 10969 10972 10974 10978 10983 10987
10654 10652 10649 10646 10642 10639 10635 10631 10627 10623 10618 10614 10609 10605 10602 10600 10598 10597 10596 10597 10597 10599 10601 10604 10608 10612 10616 10622 10629 10636 10641 10649 10660 10667 10667 10671 10679 10686 10695 10705 10714 10723 10734 10739 10737 10744 10750 10752 10769 10787 10788 10794 10802 10805 10813 10821 10828 10837 10843 10848 10856 10858 10863 10871 10878 10883 10890 10896 10897 10901 10912 10916 10918 10923 10928 10933 10940 10945 10949 10951 10954 10960 10963 10966 10970 10974 10979 10984
10650 10647 10645 10642 10639 10635 10631 10627 10623 10618 10614 10609 10603 10599 10596 10594 10592 10591 10591 10591 10591 10593 10595 10598 10602 10606 10610 10615 10622 10628 10634 10641 10649 10654 10655 10660 10668 10675 10684 10695 10704 10712 10720 10724 10724 10732 10740 10747 10767 10780 10778 10784 10794 10799 10809 10818 10823 10830 10837 10845 10853 10853 10857 10867 10873 10879 10885 10887 10889 10896 10903 10904 10908 10916 10921 10926 10933 10938 10941 10944 10948 10953 10956 10960 10964 10969 10974 10979
10646 10643 10641 10638 10635 10632 10628 10624 10620 10615 10609 10604 10598 10593 10591 10589 10587 10586 10586 10586 10586 10588 10590 10593 10596 10599 10603 10608 10614 10619 10626 10631 10638 10642 10642 10646 10655 10665 10674 10685 10694 10701 10708 10711 10715 10723 10731 10741 10757 10767 10768 10776 10788 10794 10800 10806 10810 10819 10829 10838 10844 10845 10849 10856 10863 10871 10875 10877 10883 10888 10887 10891 10903 10912 10916 10920 10926 10931 10934 10938 10942 10947 10951 10954 10958 10963 10968 10973
10642 10640 10638 10636 10632 10629 10626 10622 10617 10612 10606 10600 10595 10591 10588 10586 10583 10582 10582 10582 10583 10584 10585 10587 10590 10593 10596 10601 10606 10610 10615 10620 10625 10629 10631 10637 10647 10657 10665 10675 10684 10691 10697 10703 10707 10711 10717 10729 10744 10755 10760 10769 10777 10778 10783 10794 10803 10810 10819 10829 10835 10835 10836 10844 10856 10865 10869 10871 10876 10873 10871 10885 10901 10906 10909 10913 10918 10923 10927 10930 10935 10940 10945 10949 10952 10957 10962 10967
10640 10638 10636 10633 10630 10626 10623 10620 10615 10610 10603 10597 10593 10589 10585 10583 10580 10579 10578 10578 10579 10580 10581 10582 10585 10589 10592 10595 10599 10602 10606 10610 10615 10620 10626 10633 10643 10651 10659 10668 10674 10680 10686 10691 10691 10693 10705 10721 10733 10744 10751 10754 10758 10765 10777 10792 10800 10805 10816 10825 10829 10826 10830 10842 10852 10857 10860 10862 10864 10860 10862 10880 10893 10894 10899 10905 10909 10914 10918 10922 10929 10935 10940 10944 10946 10951 10956 10961
10636 10635 10634 10631 10628 10624 10621 10617 10612 10606 10600 10594 10590 10586 10583 10580 10578 10576 10575 10575 10576 10577 10578 10580 10582 10585 10587 10590 10593 10597 10601 10606 10611 10617 10624 10630 10638 10646 10655 10662 10667 10672 10676 10679 10683 10693 10709 10721 10727 10737 10745 10745 10754 10768 10779 10788 10794 10800 10809 10816 10818 10818 10822 10831 10835 10838 10844 10847 10848 10848 10854 10873 10885 10887 10893 10899 10901 10905 10909 10915 10923 10930 10935 10938 10941 10946 10951 10956
10634 10632 10632 10629 10626 10623 10618 10614 10609 10603 10598 10592 10588 10584 10580 10578 10576 10574 10573 10573 10573 10575 10576 10577 10579 10580 10583 10586 10589 10593 10597 10602 10607 10614 10620 10626 10632 10640 10649 10656 10662 10668 10672 10677 10687 10699 10708 10713 10718 10728 10736 10739 10752 10765 10769 10775 10784 10788 10794 10800 10803 10805 10810 10817 10823 10829 10836 10838 10838 10841 10851 10870 10882 10883 10886 10891 10893 10898 10903 10909 10917 10924 10929 10933 10936 10942 10946 10950
10632 10630 10629 10627 10625 10621 10617 10613 10608 10603 10598 10592 10586 10582 10579 10577 10574 10572 10572 10571 10571 10573 10574 10575 10576 10578 10581 10584 10586 10590 10593 10597 10602 10608 10614 10620 10626 10634 10643 10650 10656 10662 10667 10673 10683 10689 10693 10699 10707 10718 10725 10730 10741 10749 10751 10760 10768 10772 10779 10785 10788 10794 10801 10809 10822 10831 10837 10837 10835 10839 10855 10870 10877 10878 10881 10885 10889 10893 10897 10903 10910 10918 10923 10926 10931 10937 10941 10945
10630 10629 10627 10625 10622 10620 10617 10613 10609 10604 10598 10591 10586 10581 10578 10576 10573 10571 10570 10569 10570 10570 10572 10574 10575 10577 10580 10582 10585 10588 10591 10595 10599 10603 10608 10614 10620 10628 10636 10644 10650 10655 10660 10667 10674 10680 10685 10692 10700 10709 10717 10722 10730 10738 10742 10750 10758 10762 10770 10776 10781 10788 10793 10802 10816 10824 10829 10832 10829 10836 10853 10862 10865 10871 10875 10878 10884 10888 10891 10896 10904 10912 10917 10920 10926 10931 10936 10940
10628 10627 10625 10623 10620 10618 10616 10612 10608 10603 10598 10592 10586 10581 10577 10575 10573 10571 10569 10568 10569 10569 10570 10572 10574 10576 10579 10581 10583 10586 10589 10593 10596 10598 10603 10608 10614 10622 10629 10637 10643 10648 10654 10660 10667 10674 10680 10686 10694 10702 10708 10713 10721 10731 10737 10744 10751 10756 10759 10763 10770 10778 10785 10799 10811 10812 10816 10821 10819 10830 10847 10853 10854 10860 10865 10868 10874 10880 10884 10890 10899 10906 10911 10914 10920 10925 10930 10934
10626 10625 10623 10621 10619 10617 10614 10611 10607 10603 10598 10592 10586 10581 10577 10574 10572 10570 10569 10568 10567 10568 10569 10570 10572 10574 10577 10578 10580 10582 10586 10590 10593 10596 10600 10604 10611 10617 10622 10630 10636 10641 10648 10654 10661 10670 10674 10678 10686 10692 10696 10702 10711 10720 10727 10733 10739 10744 10746 10753 10764 10772 10780 10793 10797 10797 10806 10810 10810 10822 10838 10842 10845 10852 10857 10860 10865 10872 10878 10884 10892 10899 10902 10907 10913 10918 10923 10927
10624 10623 10621 10620 10617 10615 10613 10610 10606 10602 10597 10592 10586 10581 10577 10574 10571 10569 10568 10567 10567 10567 10568 10569 10570 10572 10575 10577 10578 10579 10583 10587 10590 10594 10597 10600 10606 10611 10616 10623 10629 10635 10643 10648 10655 10662 10663 10667 10678 10684 10689 10699 10708 10714 10719 10722 10728 10734 10739 10752 10767 10772 10777 10784 10782 10786 10799 10803 10805 10818 10827 10830 10837 10845 10848 10852 10857 10865 10871 10877 10884 10889 10893 10899 10905 10910 10915 10920
10622 10621 10619 10617 10615 10613 10611 10608 10605 10601 10596 10592 10587 10582 10578 10574 10571 10569 10568 10567 10566 10566 10567 10568 10569 10571 10573 10575 10575 10576 10580 10583 10584 10587 10590 10595 10600 10605 10611 10617 10621 10627 10634 10639 10646 10652 10654 10663 10674 10678 10684 10693 10699 10705 10710 10713 10718 10726 10734 10748 10758 10760 10765 10772 10773 10781 10794 10796 10800 10811 10816 10820 10829 10834 10837 10842 10849 10857 10863 10867 10873 10879 10885 10892 10897 10901 10907 10912
10622 10620 10618 10616 10614 10612 10609 10606 10603 10600 10595 10591 10587 10583 10579 10575 10572 10570 10568 10566 10566 10566 10566 10567 10568 10570 10571 10572 10572 10575 10578 10579 10580 10582 10586 10591 10596 10600 10605 10609 10613 10619 10625 10631 10638 10642 10649 10660 10667 10670 10675 10682 10686 10693 10698 10701 10707 10716 10727 10740 10747 10746 10751 10758 10761 10771 10782 10784 10789 10800 10806 10811 10819 10823 10825 10829 10836 10844 10851 10856 10864 10871 10877 10883 10888 10892 10898 10904
10621 10619 10617 10615 10613 10611 10607 10605 10602 10598 10595 10591 10587 10583 10580 10577 10574 10571 10568 10567 10566 10565 10565 10566 10567 10568 10570 10570 10571 10574 10576 10577 10578 10582 10585 10588 10592 10596 10600 10603 10607 10613 10618 10624 10630 10634 10644 10654 10658 10661 10667 10672 10677 10683 10687 10692 10700 10708 10718 10730 10734 10733 10738 10746 10752 10760 10771 10776 10781 10791 10797 10801 10807 10812 10813 10815 10822 10831 10838 10846 10854 10861 10867 10874 10880 10884 10890 10895